Showing default

GHOST-4, 59133

Orbit data source: Space-Track

GHOST-4, 59133 is a payload satellite owned by Orbital Sidekick (US) in SSO that was launched on Mon, 04 Mar 2024 UTC via an FALCON 9 launch vehicle from the Air Force Western Test Range (AFWTR). Payloads include a variety of satellites, spacecraft, and rockets equipped with specific instruments for various scientific and technological missions. These include communications satellites like Starlink; space stations such as the ISS; scientific satellites like the Hubble; Earth observation satellites from companies like Planet Labs, Umbra, and HawkEye 360; GPS; miniature CubeSats for education and research; and military/defense satellites.

Loading next visibility...
GHOST-4 details
Identifier
59133, 2024-043AM
Orbit
SSO
Last TLE update16 hours ago
Origin
Flag of USOrbital Sidekick (US)
ManufacturerAstro Digital
MissionOperational Commercial Imaging
Bus & MotorCORVUS-XL, Unknown motor
Mass85 kg wet, 85 kg dry
Launch date (UTC)
2024-03-04 (11 months ago)
Launch vehicle
FALCON 9
Launch site
Air Force Western Test Range (AFWTR)
Object type
Payload
Rocket body
Debris
Shape & HBRBox + 1 Dish, 2 m
Radar Cross Section0.425 m², Medium (>0.1 m² and < 1m²)

Expand to show TLE details & history

TLE from 16 hours ago
0 GHOST-4
1 59133U 24043AM  25042.90306653  .00016284  00000-0  60143-3 0  9997
2 59133  97.4969 172.2203 0010987 160.0660 200.1011 15.27768334 52309
Epoch: 2025-02-11T21:40Z
Definitive object data (Epoch: 2025-02-11T21:40:24.948Z)
Latitude0.00005°
Longitude64.91513°
Altitude492.665 km
Speed7.615 km/s
True Right ascension11h 28m 52s
True Declination0° 00' 00"
Sunlit
Object was in full shadow at TLE epoch
Visualization TLE readout
Latitude15.18813°
Longitude63.54046°
Altitude490.782 km
Speed7.618 km/s
Apparent Right ascension08h 30m 26s
Apparent Declination-18° 53' 49"
Sunlit
Object is in full shadow
Visualization observer readout
Local Sidereal Time15:58:29
Azimuth268.636° W
Elevation-28.67°
Doppler factor1
Orbital elements
Apogee altitude486.979 km
Perigee altitude471.91 km
Semi-major axis6,857.582 km
Eccentricity0.0010987
Inclination97.4969°
RAAN172.2203°
Arg. of periapsis160.066°
True anomaly200.05789°
Mean anomaly200.1011°
Eccentric anomaly200.07949°
Mean motion3.82196 °/min
BSTAR0.00060143
Orbital period94.19 mins
Loading maneuver chart data...
Loading historical data...
Loading historical data...
Loading historical data...
Loading historical data...
Loading historical data...
Loading historical data...
Loading historical data...

GHOST-4 Visibility forecast

Observer location: undefined°, undefined

Span
Click to sort rows by Start time (UTC) header in descending order
Start Az.
Max El. time (UTC)
Max El. Az.
Max El.
End time (UTC)
End Az.
5 mins2025-02-12 21:49:33.782Z342.15° N2025-02-12 21:51:33.782Z277.817° WNW31.576°2025-02-12 21:54:33.782Z218.013° SW
5 mins2025-02-13 08:23:33.782Z154.832° SSE2025-02-13 08:25:33.782Z118.553° SE40.548°2025-02-13 08:28:33.782Z356.427° N
|